Valley City, ND

11:39 PM CST on December 09, 2019 (GMT -0600)
Valley City

Weather History for KBAC - October, 2019

Change the Weather History Date:

Friday, October 25, 2019

  Actual Average (KJMS) Record (KJMS)
Temperature  
Mean Temperature 44 °F -  
Max Temperature 59 °F 53 °F 82 °F (1989)
Min Temperature 28 °F 30 °F 5 °F (1919)
Degree Days  
Heating Degree Days 22    
Moisture  
Dew Point 34 °F    
Average Humidity 76    
Maximum Humidity 100    
Minimum Humidity 44    
Precipitation  
Precipitation 0.00 in - - ()
Sea Level Pressure  
Sea Level Pressure 29.96 in    
Wind  
Wind Speed 12 mph (SSW)    
Max Wind Speed 20 mph    
Max Gust Speed 26 mph    
Visibility 10 miles    
Events      
Averages and records for this station are not official NWS values.
T = Trace of Precipitation, MM = Missing Value Source: NWS Daily Summary

Daily Weather History Graph

Daily Weather History Graph

Search for Another Location

Airport or City:

Astronomy

Oct. 25, 2019 Rise Set
Actual Time 8:04 AM CDT 6:27 PM CDT
Civil Twilight 7:32 AM CDT 6:58 PM CDT
Nautical Twilight 6:57 AM CDT 7:34 PM CDT
Astronomical Twilight 6:22 AM CDT 8:09 PM CDT
Moon 4:30 AM CDT (10/25) 5:45 PM CDT (10/25)
Length of Visible Light 11h 25m
Length of Day
10h 23m
Waning Crescent, 9% of the Moon is Illuminated
Oct 25
Waning Crescent
Oct 27
New
Nov 4
First Quarter
Nov 12
Full
Nov 19
Last Quarter

Hourly Weather History & Observations

Time (CDT) Temp. Windchill Dew Point Humidity Pressure Visibility Wind Dir Wind Speed Gust Speed Precip Events Conditions
12:15 AM 32.0 °F 23.6 °F 32.0 °F 100% 30.20 in 10.0 mi SSW 10.4 mph - N/A   Clear
12:35 AM 32.0 °F 23.0 °F 32.0 °F 100% 30.20 in 10.0 mi SW 11.5 mph - N/A   Clear
12:55 AM 32.0 °F 23.0 °F 32.0 °F 100% 30.19 in 10.0 mi SW 11.5 mph - N/A   Clear
1:15 AM 32.0 °F 23.6 °F 32.0 °F 100% 30.18 in 10.0 mi SW 10.4 mph - N/A   Clear
1:35 AM 30.2 °F 21.3 °F 30.2 °F 100% 30.17 in 10.0 mi SW 10.4 mph - N/A   Clear
1:55 AM 30.2 °F 21.3 °F 30.2 °F 100% 30.17 in 10.0 mi SW 10.4 mph - N/A   Clear
2:15 AM 30.2 °F 21.3 °F 30.2 °F 100% 30.17 in 10.0 mi SW 10.4 mph - N/A   Clear
2:35 AM 30.2 °F 21.3 °F 30.2 °F 100% 30.16 in 10.0 mi SW 10.4 mph - N/A   Clear
2:55 AM 30.2 °F 21.3 °F 30.2 °F 100% 30.16 in 10.0 mi SW 10.4 mph - N/A   Clear
3:15 AM 30.2 °F 21.3 °F 30.2 °F 100% 30.15 in 10.0 mi SSW 10.4 mph - N/A   Clear
3:35 AM 28.4 °F 19.1 °F 28.4 °F 100% 30.14 in 10.0 mi SSW 10.4 mph - N/A   Clear
4:15 AM - - - N/A% 30.11 in 10.0 mi SSW 11.5 mph - N/A   Clear
4:35 AM 30.2 °F 21.9 °F 30.2 °F 100% 30.11 in 10.0 mi SSW 9.2 mph - N/A   Clear
4:55 AM 30.2 °F 21.3 °F 30.2 °F 100% 30.10 in 10.0 mi SSW 10.4 mph - N/A   Clear
5:15 AM 30.2 °F 21.9 °F 30.2 °F 100% 30.10 in 10.0 mi SSW 9.2 mph - N/A   Clear
5:35 AM 30.2 °F 21.3 °F 30.2 °F 100% 30.10 in 10.0 mi SSW 10.4 mph - N/A   Clear
5:55 AM 30.2 °F 21.3 °F 30.2 °F 100% 30.09 in 10.0 mi SSW 10.4 mph - N/A   Clear
6:15 AM 30.2 °F 21.3 °F 30.2 °F 100% 30.08 in 10.0 mi South 10.4 mph - N/A   Clear
6:35 AM 28.4 °F 19.7 °F 28.4 °F 100% 30.08 in 10.0 mi SSW 9.2 mph - N/A   Clear
6:55 AM 30.2 °F 21.3 °F 30.2 °F 100% 30.07 in 10.0 mi SSW 10.4 mph - N/A   Clear
7:15 AM 30.2 °F 21.9 °F 30.2 °F 100% 30.06 in 10.0 mi South 9.2 mph - N/A   Clear
7:35 AM 30.2 °F 21.3 °F 30.2 °F 100% 30.05 in 10.0 mi SSW 10.4 mph - N/A   Clear
7:55 AM 32.0 °F 23.6 °F 30.2 °F 93% 30.05 in 10.0 mi SSW 10.4 mph - N/A   Clear
8:15 AM 32.0 °F 22.5 °F 30.2 °F 93% 30.04 in 10.0 mi SSW 12.7 mph - N/A   Clear
8:35 AM 32.0 °F 23.6 °F 30.2 °F 93% 30.04 in 10.0 mi SSW 10.4 mph - N/A   Clear
8:55 AM 32.0 °F 23.0 °F 30.2 °F 93% 30.03 in 10.0 mi SSW 11.5 mph - N/A   Clear
9:15 AM 32.0 °F 22.1 °F 30.2 °F 93% 30.03 in 10.0 mi SSW 13.8 mph - N/A   Clear
9:35 AM 33.8 °F 24.3 °F 30.2 °F 87% 30.03 in 10.0 mi SSW 13.8 mph 19.6 mph N/A   Clear
9:55 AM 35.6 °F 25.9 °F 32.0 °F 87% 30.02 in 10.0 mi SSW 16.1 mph - N/A   Clear
10:15 AM 37.4 °F 28.2 °F 32.0 °F 81% 30.01 in 10.0 mi SSW 16.1 mph - N/A   Clear
10:35 AM 39.2 °F 30.2 °F 32.0 °F 75% 30.01 in 10.0 mi SSW 17.3 mph 23.0 mph N/A   Clear
10:55 AM 41.0 °F 32.8 °F 32.0 °F 70% 30.01 in 10.0 mi SW 16.1 mph - N/A   Clear
1:35 PM 53.6 °F - 35.6 °F 51% 29.95 in 10.0 mi SW 13.8 mph 21.9 mph N/A   Clear
1:55 PM 55.4 °F - 35.6 °F 47% 29.94 in 10.0 mi SW 18.4 mph - N/A   Clear
2:15 PM 57.2 °F - 35.6 °F 44% 29.93 in 10.0 mi SW 18.4 mph - N/A   Clear
2:35 PM 57.2 °F - 35.6 °F 44% 29.92 in 10.0 mi SW 17.3 mph - N/A   Clear
2:55 PM 57.2 °F - 37.4 °F 48% 29.91 in 10.0 mi SW 19.6 mph - N/A   Clear
3:15 PM 59.0 °F - 37.4 °F 45% 29.90 in 10.0 mi SW 19.6 mph - N/A   Clear
3:35 PM 59.0 °F - 37.4 °F 45% 29.89 in 10.0 mi SW 16.1 mph 23.0 mph N/A   Clear
3:55 PM 59.0 °F - 37.4 °F 45% 29.88 in 10.0 mi SSW 17.3 mph - N/A   Clear
4:15 PM 59.0 °F - 37.4 °F 45% 29.88 in 10.0 mi SSW 13.8 mph - N/A   Clear
4:35 PM 59.0 °F - 37.4 °F 45% 29.87 in 10.0 mi SSW 15.0 mph - N/A   Clear
4:55 PM 59.0 °F - 39.2 °F 48% 29.86 in 10.0 mi SSW 12.7 mph - N/A   Clear
5:15 PM 59.0 °F - 39.2 °F 48% 29.86 in 10.0 mi SSW 12.7 mph - N/A   Clear
5:35 PM 57.2 °F - 39.2 °F 51% 29.85 in 10.0 mi SSW 15.0 mph - N/A   Clear
5:55 PM 57.2 °F - 39.2 °F 51% 29.85 in 10.0 mi SSW 11.5 mph - N/A   Clear
6:15 PM 53.6 °F - 39.2 °F 58% 29.84 in 10.0 mi South 11.5 mph - N/A   Clear
6:35 PM 51.8 °F - 37.4 °F 58% 29.83 in 10.0 mi South 13.8 mph - N/A   Clear
6:55 PM 50.0 °F - 37.4 °F 62% 29.83 in 10.0 mi South 10.4 mph - N/A   Clear
7:15 PM 46.4 °F 42.4 °F 37.4 °F 71% 29.82 in 10.0 mi South 8.1 mph - N/A   Clear
7:35 PM 46.4 °F 41.1 °F 39.2 °F 76% 29.81 in 10.0 mi South 11.5 mph - N/A   Clear
7:55 PM 46.4 °F 41.1 °F 39.2 °F 76% 29.80 in 10.0 mi South 11.5 mph - N/A   Clear
8:15 PM 48.2 °F - 39.2 °F 71% 29.79 in 10.0 mi South 12.7 mph - N/A   Clear
8:35 PM 48.2 °F - 37.4 °F 66% 29.79 in 10.0 mi SSW 13.8 mph - N/A   Clear
8:55 PM 50.0 °F - 37.4 °F 62% 29.79 in 10.0 mi SSW 16.1 mph - N/A   Clear
9:15 PM 48.2 °F - 37.4 °F 66% 29.78 in 10.0 mi SSW 17.3 mph - N/A   Clear
9:35 PM 48.2 °F - 37.4 °F 66% 29.77 in 10.0 mi SSW 16.1 mph - N/A   Clear
9:55 PM 48.2 °F - 37.4 °F 66% 29.77 in 10.0 mi South 16.1 mph - N/A   Clear
10:15 PM 48.2 °F - 35.6 °F 62% 29.76 in 10.0 mi South 17.3 mph - N/A   Clear
10:35 PM 48.2 °F - 35.6 °F 62% 29.75 in 10.0 mi South 16.1 mph 23.0 mph N/A   Clear
10:55 PM 48.2 °F - 35.6 °F 62% 29.75 in 10.0 mi SSW 19.6 mph 26.5 mph N/A   Clear
11:15 PM 48.2 °F - 35.6 °F 62% 29.74 in 10.0 mi South 18.4 mph - N/A   Clear
11:35 PM 46.4 °F 39.8 °F 35.6 °F 66% 29.73 in 10.0 mi South 16.1 mph 25.3 mph N/A   Clear
11:55 PM 46.4 °F 39.0 °F 35.6 °F 66% 29.71 in 10.0 mi South 19.6 mph - N/A   Clear